This is the latest recevied weather packets stored in our database for station/object p43g-13. If no packets are shown the sender has not sent any weather packets the latest 10 day(s).
| Time | Temp. | Humidity | Pressure | Rain* | Wind** | Luminosity | Snow |
|---|---|---|---|---|---|---|---|
| 1787772339 | 31.11° C | 76% | 1010.2 hPa | 0 mm | - | 672 W/m² | - |
| 1787772039 | 31.11° C | 76% | 1010.5 hPa | 0 mm | - | 695 W/m² | - |
| 1787771739 | 31.11° C | 75% | 1010.4 hPa | 0 mm | - | 709 W/m² | - |
| 1787771439 | 31.67° C | 74% | 1010.2 hPa | 0 mm | - | 694 W/m² | - |
| 1787771139 | 31.11° C | 74% | 1010.3 hPa | 0 mm | - | 678 W/m² | - |
| 1787770838 | 31.11° C | 74% | 1010.3 hPa | 0 mm | - | 738 W/m² | - |
| 1787770538 | 31.11° C | 74% | 1010.5 hPa | 0 mm | - | 747 W/m² | - |
| 1787770239 | 31.11° C | 75% | 1010.6 hPa | 0 mm | - | 689 W/m² | - |
| 1787769939 | 31.11° C | 76% | 1010.7 hPa | 0 mm | - | 576 W/m² | - |
| 1787769639 | 31.11° C | 76% | 1010.8 hPa | 0 mm | - | 476 W/m² | - |
| 1787769339 | 31.11° C | 76% | 1010.9 hPa | 0 mm | - | 806 W/m² | - |
| 1787769039 | 31.67° C | 73% | 1010.9 hPa | 0 mm | - | 817 W/m² | - |
| 1787768739 | 31.67° C | 72% | 1010.9 hPa | 0 mm | - | 831 W/m² | - |
| 1787768439 | 31.67° C | 73% | 1010.8 hPa | 0 mm | - | 841 W/m² | - |
| 1787768139 | 31.67° C | 74% | 1010.9 hPa | 0 mm | - | 847 W/m² | - |
| 1787767839 | 31.67° C | 74% | 1010.9 hPa | 0 mm | - | 870 W/m² | - |
| 1787767539 | 31.67° C | 74% | 1011 hPa | 0 mm | - | 540 W/m² | - |
| 1787767239 | 31.11° C | 75% | 1011.1 hPa | 0 mm | - | 928 W/m² | - |
| 1787766939 | 31.67° C | 75% | 1011.2 hPa | 0 mm | - | 973 W/m² | - |
| 1787766639 | 32.22° C | 74% | 1011.5 hPa | 0 mm | - | 1050 W/m² | - |
| 1787766339 | 31.67° C | 75% | 1011.3 hPa | 0 mm | - | 455 W/m² | - |
| 1787766039 | 31.67° C | 75% | 1011.3 hPa | 0 mm | - | 948 W/m² | - |
| 1787765739 | 31.67° C | 75% | 1011.5 hPa | 0 mm | - | 832 W/m² | - |
| 1787765439 | 31.67° C | 75% | 1011.7 hPa | 0 mm | - | 1030 W/m² | - |
| 1787765140 | 31.67° C | 76% | 1011.8 hPa | 0 mm | - | 1056 W/m² | - |
* Rain latest hour (hover to see other rain measurements)
** Current wind speed in m/s (hover to see current wind gust speed)